Niagara Falls, NY

6:14 PM EST on November 12, 2019 (GMT -0500)
Niagara Falls International

Weather History for KIAG - September, 2019

Change the Weather History Date:

Saturday, September 7, 2019

  Actual Average Record
Temperature  
Mean Temperature 60 °F -  
Max Temperature 71 °F 74 °F 90 °F (2007)
Min Temperature 50 °F 55 °F 46 °F (2000)
Degree Days  
Heating Degree Days 5    
Growing Degree Days 10 (Base 50)    
Moisture  
Dew Point 53 °F    
Average Humidity 85    
Maximum Humidity 100    
Minimum Humidity 53    
Precipitation  
Precipitation 0.03 in - - ()
Sea Level Pressure  
Sea Level Pressure 29.90 in    
Wind  
Wind Speed 3 mph (WNW)    
Max Wind Speed 14 mph    
Max Gust Speed -    
Visibility 6 miles    
Events Fog , Rain    
Averages and records for this station are not official NWS values.
T = Trace of Precipitation, MM = Missing Value Source: NWS Daily Summary

Daily Weather History Graph

Daily Weather History Graph

Search for Another Location

Airport or City:

Astronomy

Sep. 07, 2019 Rise Set
Actual Time 6:46 AM EDT 7:40 PM EDT
Civil Twilight 6:17 AM EDT 8:09 PM EDT
Nautical Twilight 5:43 AM EDT 8:43 PM EDT
Astronomical Twilight 5:07 AM EDT 9:19 PM EDT
Moon 4:02 PM EDT (9/7) 12:29 AM EDT (9/7)
Length of Visible Light 13h 51m
Length of Day
12h 54m
Waxing Gibbous, 65% of the Moon is Illuminated
Sep 7
Waxing Gibbous
Sep 14
Full
Sep 21
Last Quarter
Sep 28
New
Oct 5
First Quarter

Hourly Weather History & Observations

Time (EDT) Temp. Dew Point Humidity Pressure Visibility Wind Dir Wind Speed Gust Speed Precip Events Conditions
12:53 AM 55.9 °F 53.1 °F 90% 29.89 in 10.0 mi NNE 4.6 mph - N/A   Clear
1:53 AM 55.0 °F 54.0 °F 96% 29.88 in 10.0 mi Calm Calm - N/A   Mostly Cloudy
2:53 AM 53.1 °F 52.0 °F 96% 29.88 in 2.5 mi Calm Calm - N/A   Clear
3:00 AM 53.1 °F 52.0 °F 96% 29.88 in 1.2 mi Calm Calm - N/A   Clear
3:13 AM 52.0 °F 51.1 °F 97% 29.88 in 0.8 mi Calm Calm - N/A   Clear
3:23 AM 52.0 °F 51.1 °F 97% 29.88 in 0.5 mi Calm Calm - N/A Fog Fog
3:37 AM 52.0 °F 51.1 °F 97% 29.88 in 0.2 mi Calm Calm - N/A Fog Fog
3:41 AM 51.1 °F 51.1 °F 100% 29.88 in 0.8 mi Calm Calm - N/A   Clear
3:43 AM 51.1 °F 51.1 °F 100% 29.88 in 1.2 mi Calm Calm - N/A   Clear
3:48 AM 51.8 °F 51.8 °F 100% 29.88 in 0.8 mi Calm Calm - N/A   Clear
3:53 AM 51.1 °F 51.1 °F 100% 29.88 in 0.5 mi Calm Calm - N/A Fog Fog
4:05 AM 51.1 °F 50.0 °F 96% 29.88 in 1.0 mi Calm Calm - N/A   Partly Cloudy
4:19 AM 50.0 °F 48.9 °F 96% 29.88 in 3.0 mi WSW 3.5 mph - N/A   Partly Cloudy
4:53 AM 51.1 °F 51.1 °F 100% 29.88 in 9.0 mi Calm Calm - N/A   Clear
5:12 AM 50.0 °F 50.0 °F 100% 29.88 in 1.5 mi Calm Calm - N/A   Clear
5:19 AM 51.1 °F 50.0 °F 96% 29.88 in 1.2 mi Calm Calm - N/A   Clear
5:22 AM 51.1 °F 50.0 °F 96% 29.88 in 3.0 mi Calm Calm - N/A   Clear
5:53 AM 52.0 °F 52.0 °F 100% 29.90 in 10.0 mi Calm Calm - N/A   Clear
6:12 AM 51.1 °F 50.0 °F 96% 29.89 in 1.8 mi Calm Calm - N/A   Scattered Clouds
6:21 AM 51.1 °F 50.0 °F 96% 29.89 in 5.0 mi West 3.5 mph - N/A   Mostly Cloudy
6:53 AM 52.0 °F 52.0 °F 100% 29.91 in 10.0 mi WSW 3.5 mph - N/A   Overcast
7:53 AM 57.0 °F 55.0 °F 93% 29.92 in 10.0 mi West 4.6 mph - N/A   Mostly Cloudy
8:53 AM 60.1 °F 55.9 °F 86% 29.91 in 10.0 mi West 4.6 mph - N/A   Overcast
9:53 AM 61.0 °F 53.1 °F 75% 29.91 in 10.0 mi WSW 4.6 mph - N/A   Overcast
10:53 AM 63.0 °F 52.0 °F 67% 29.91 in 10.0 mi West 8.1 mph - N/A   Overcast
11:53 AM 64.9 °F 54.0 °F 68% 29.91 in 10.0 mi West 8.1 mph - N/A   Overcast
12:35 PM 64.9 °F 54.0 °F 68% 29.91 in 10.0 mi WNW 10.4 mph - N/A   Overcast
12:53 PM 66.0 °F 54.0 °F 65% 29.91 in 10.0 mi NW 10.4 mph - N/A   Overcast
1:53 PM 66.9 °F 55.0 °F 66% 29.90 in 10.0 mi NNW 8.1 mph - N/A   Overcast
2:00 PM 66.0 °F 54.0 °F 65% 29.89 in 10.0 mi North 4.6 mph - N/A   Overcast
2:53 PM 66.9 °F 54.0 °F 63% 29.89 in 10.0 mi WNW 10.4 mph - N/A   Scattered Clouds
3:53 PM 68.0 °F 54.0 °F 61% 29.88 in 10.0 mi WNW 9.2 mph - N/A   Scattered Clouds
4:53 PM 70.0 °F 52.0 °F 53% 29.88 in 10.0 mi West 12.7 mph - N/A   Clear
5:53 PM 70.0 °F 52.0 °F 53% 29.88 in 10.0 mi West 10.4 mph - N/A   Clear
6:53 PM 66.9 °F 53.1 °F 61% 29.90 in 10.0 mi West 8.1 mph - N/A   Scattered Clouds
7:53 PM 66.0 °F 55.9 °F 70% 29.90 in 10.0 mi WSW 6.9 mph - N/A   Overcast
8:53 PM 63.0 °F 55.9 °F 78% 29.93 in 7.0 mi NNW 13.8 mph - 0.02 in Rain Light Rain
9:53 PM 61.0 °F 57.9 °F 90% 29.95 in 10.0 mi West 4.6 mph - 0.01 in   Overcast
10:53 PM 61.0 °F 57.0 °F 87% 29.95 in 10.0 mi WNW 6.9 mph - N/A   Mostly Cloudy
11:53 PM 60.1 °F 55.0 °F 83% 29.95 in 10.0 mi WNW 8.1 mph - N/A   Clear